Tracking 29892 objects as of 21-Nov-2024
HD Live streaming from Space Station
objects crossing your sky now

DELTA 1 DEB

Track DELTA 1 DEB now!
10-day predictions


NORAD ID: 7012
Int'l Code: 1973-086C
Perigee: 1,434.9 km
Apogee: 1,528.2 km
Inclination: 101.7 °
Period: 115.4 minutes
Semi major axis: 7852 km
RCS: 0.3843 m2 (medium)
Launch date: November 6, 1973
Source: United States (US)
Launch site: AIR FORCE WESTERN TEST RANGE (AFWTR)

Note: This is SATELLITE DEBRIS
Your satellite tracking list
Your tracking list is empty




NASA's NSSDC Master Catalog

Two Line Element Set (TLE):
1 07012U 73086C   24325.88615816  .00000020  00000-0  43102-3 0  9998
2 07012 101.6828 285.6420 0059382 139.6471 244.3875 12.47629585322978
Source of the keplerian elements: AFSPC